Wind_Speed
46 51 55 60 58 56 53 52 52 50 42 34 27 24 25 11 2 2 6 6 4 19 22 20 27 38 45 67 61 45 38 52 71 73 71 67 65 62 61 60 59 56 54 51 49 47 45
44 50 54 58 58 56 52 50 50 51 47 37 27 24 14 6 4 10 12 12 11 12 10 17 25 33 45 59 60 57 51 44 64 71 69 66 63 59 58 57 56 54 53 51 50 47 46
44 47 52 56 58 57 52 48 49 51 50 41 27 21 11 11 9 18 16 16 14 16 14 18 26 35 44 52 57 52 48 54 47 62 65 63 61 60 56 53 52 51 51 51 49 47 45
42 45 51 55 57 57 53 47 47 52 52 43 33 24 16 19 26 22 16 17 18 17 16 15 26 34 37 45 52 32 44 53 54 55 64 60 59 57 54 53 51 49 48 48 46 43 41
41 43 49 53 56 58 55 48 46 50 51 46 32 25 26 28 26 21 18 19 16 16 11 12 21 30 31 39 39 32 38 53 53 60 60 58 56 54 53 51 49 46 44 43 40 38 36
39 41 47 51 55 57 55 51 47 46 49 49 31 25 26 23 19 25 20 17 10 9 9 8 13 33 41 22 21 30 42 44 41 58 58 59 54 52 50 49 48 45 40 38 35 33 32
37 40 44 49 53 55 55 54 47 44 47 44 36 25 29 30 23 19 14 13 9 11 12 9 18 25 37 24 27 36 39 42 41 51 56 55 53 51 48 46 44 40 36 33 32 31 31
35 38 42 46 49 54 55 51 52 44 43 42 35 24 25 20 16 13 14 19 9 14 13 21 20 16 37 25 27 39 36 36 40 52 51 52 49 47 44 42 40 39 37 35 33 31 30
33 36 40 43 46 50 54 54 50 49 40 39 34 23 21 15 13 13 16 21 18 18 14 17 15 21 31 19 25 33 31 39 40 50 51 49 48 45 42 40 38 36 34 33 31 30 28
31 33 37 40 44 46 50 53 53 49 46 36 31 26 19 11 6 9 15 16 18 24 22 28 17 20 13 28 28 34 33 36 36 48 49 48 47 45 42 39 37 34 32 30 29 28 28
30 31 34 37 40 42 45 50 52 52 47 44 33 26 22 16 14 14 15 18 15 24 24 23 27 24 23 25 30 29 27 29 41 41 46 48 47 45 42 39 36 33 32 30 29 28 28
30 29 31 33 36 40 41 44 48 52 51 46 43 34 27 22 14 11 17 21 19 27 35 28 26 23 20 30 25 23 24 32 39 39 41 43 45 44 41 39 37 34 31 30 28 26 27
30 29 28 30 32 36 38 39 42 46 51 50 47 40 35 30 26 21 21 22 25 33 32 29 32 34 33 30 26 20 21 29 36 42 39 40 39 39 38 37 35 33 31 28 27 28 25
28 29 27 27 29 32 35 37 38 40 44 50 50 48 41 39 36 34 30 30 30 33 41 34 27 35 31 26 20 18 20 25 28 36 37 36 39 38 37 35 32 30 28 27 27 25 23
25 27 27 26 26 27 31 34 36 37 38 43 48 49 46 41 39 35 35 33 38 46 37 31 30 31 25 19 14 20 24 26 29 32 32 30 32 31 31 30 29 28 26 25 24 23 23
23 24 26 26 24 24 26 29 32 35 36 36 41 46 47 44 39 36 38 36 40 38 31 29 24 21 16 15 11 12 17 28 33 33 33 28 29 27 28 27 26 24 24 22 22 23 22
19 22 23 24 25 22 21 24 27 30 32 34 35 36 43 45 41 36 28 30 31 33 29 28 20 12 11 14 14 18 13 18 26 31 33 31 27 24 24 23 22 23 22 23 22 21 18
17 19 20 21 22 22 20 19 22 25 27 30 31 31 33 38 41 36 30 19 20 21 18 11 12 13 10 14 14 16 16 16 23 26 31 33 29 25 24 23 24 23 23 22 20 16 13
15 17 18 18 20 20 20 17 16 19 22 24 27 29 30 29 30 33 35 30 22 18 15 15 17 16 17 22 18 18 19 18 21 24 26 28 28 25 24 23 22 20 17 14 12 12 11
13 15 17 17 17 18 18 16 15 13 16 18 22 23 25 25 25 25 26 27 27 27 26 26 26 26 24 23 24 25 24 23 22 22 22 23 21 20 19 18 16 13 12 11 11 11 10
16 15 16 16 15 15 15 15 13 13 11 13 15 17 20 21 22 22 22 23 23 22 22 21 21 22 24 25 26 25 25 24 24 23 22 21 19 17 14 13 12 12 12 13 13 11 12
19 17 16 17 15 14 14 13 13 11 10 9 9 11 13 16 18 19 19 19 19 19 21 22 23 23 23 22 22 22 22 21 21 21 20 19 18 16 15 14 14 12 11 10 8 9 9
23 19 18 17 17 14 13 13 12 10 9 7 7 5 7 9 11 13 15 15 16 16 16 16 19 21 22 22 22 22 22 22 21 19 17 15 13 12 11 10 9 9 9 8 7 7 9
26 24 21 20 19 17 13 13 12 11 9 8 4 5 4 3 5 6 8 10 12 12 12 13 13 14 17 19 20 20 19 18 17 16 15 13 12 10 9 8 7 6 7 8 8 8 8
28 27 24 22 21 19 17 13 13 11 10 10 7 4 2 3 1 1 2 3 5 6 8 9 9 9 10 10 12 14 14 14 13 12 10 8 7 6 6 6 7 8 8 9 10 11 13
32 29 27 25 24 23 20 17 16 15 11 9 9 7 5 3 2 1 2 2 1 0 1 1 2 3 3 3 4 5 5 6 7 8 10 11 12 11 11 11 13 12 13 14 17 18 20
36 32 29 28 27 26 24 21 18 18 16 13 11 10 9 7 6 6 4 2 2 2 2 3 4 4 3 2 4 4 4 5 6 6 8 10 11 13 14 16 17 17 18 22 22 22 24
42 38 33 29 28 28 27 25 21 18 18 17 15 13 12 12 11 9 8 8 7 6 5 4 4 4 6 8 9 10 10 10 11 11 12 13 15 17 19 21 20 20 19 17 16 15 16
43 42 38 32 29 29 28 25 24 20 18 18 17 17 16 15 14 12 13 11 10 9 8 8 7 7 9 10 10 10 11 11 11 12 12 13 13 14 15 14 15 16 17 16 17 21 22
Wind_Direction
7 9 9 11 9 5 4 4 8 7 358 341 331 329 332 337 210 338 32 16 146 179 187 188 197 196 199 188 190 182 182 205 207 207 206 206 208 208 212 215 217 219 223 225 228 230 234
10 12 11 13 12 8 8 8 10 11 5 356 348 341 360 72 97 91 70 67 104 159 165 182 177 184 187 188 197 210 202 188 205 204 204 205 205 206 209 212 216 218 222 225 227 231 234
12 13 13 15 14 10 11 11 10 10 11 3 7 11 55 80 64 97 86 80 133 147 141 157 174 182 195 182 176 189 194 215 204 200 202 203 203 204 204 207 213 217 220 225 227 230 234
14 14 15 16 17 14 14 12 14 12 14 15 21 39 71 80 92 79 80 89 100 125 138 148 178 180 202 188 188 179 185 196 197 199 198 200 201 202 203 206 207 212 217 222 225 229 233
14 15 15 16 19 18 16 16 16 17 17 23 32 54 83 78 80 93 98 88 82 120 147 162 180 195 192 164 180 189 177 188 189 187 195 196 197 199 200 202 207 211 217 221 223 227 230
14 16 17 16 20 21 19 19 19 21 23 24 42 67 87 85 78 80 83 90 82 73 105 134 170 199 192 192 187 175 174 183 179 180 188 193 193 196 198 201 204 207 211 217 221 224 226
14 17 19 16 20 24 23 23 22 25 27 30 37 76 92 88 86 83 82 80 79 78 79 116 101 176 199 137 163 155 167 176 178 184 181 188 189 191 195 199 200 201 205 211 216 220 223
14 16 21 19 18 24 26 25 26 26 30 34 40 70 94 99 84 81 79 60 59 73 90 86 124 146 183 125 142 158 165 170 184 179 179 180 185 189 192 194 197 201 201 205 211 217 221
13 17 19 22 19 23 26 27 28 29 30 36 45 66 86 94 87 88 72 57 54 81 109 110 118 167 179 147 131 161 166 168 183 176 176 177 182 183 187 191 194 199 202 205 209 214 219
10 15 20 21 21 22 25 28 29 30 33 32 43 48 50 60 54 57 66 44 78 106 115 105 103 162 143 129 144 153 167 174 175 176 178 176 179 181 185 187 191 194 200 204 207 212 218
13 11 19 23 22 22 26 26 30 32 33 36 35 40 42 43 42 51 67 75 95 113 101 92 98 124 95 119 126 126 164 179 180 180 179 178 178 180 182 186 188 193 198 204 209 213 220
13 11 16 22 24 23 25 27 28 33 34 36 41 42 38 35 22 67 82 90 92 97 103 95 106 103 106 114 116 134 147 176 176 183 181 181 178 180 182 185 190 193 198 204 210 217 224
12 13 11 18 24 26 25 27 29 31 36 37 40 50 49 46 51 55 87 106 97 96 101 107 107 101 108 110 110 120 147 162 178 178 183 179 179 179 182 186 190 194 199 205 213 221 228
12 14 12 12 20 27 28 28 29 31 34 40 42 46 53 54 67 80 95 106 111 101 115 117 104 115 112 108 110 120 127 161 172 175 177 180 179 180 182 187 191 194 201 209 218 226 235
9 13 14 11 13 23 28 28 31 32 34 39 43 47 53 58 67 80 78 101 101 103 104 98 100 105 103 107 139 152 155 156 161 172 174 181 178 177 181 184 189 195 204 213 225 235 245
2 10 12 13 13 13 25 29 31 33 35 37 44 47 53 60 70 79 83 90 91 98 105 91 83 100 104 101 108 164 166 165 169 169 171 175 176 175 177 184 192 200 211 221 233 244 252
354 3 8 11 11 10 17 25 30 34 36 38 42 48 53 59 67 75 84 75 72 73 75 65 64 75 94 98 126 142 131 163 172 171 176 173 177 177 184 190 199 210 218 225 233 241 247
343 353 1 7 8 10 8 20 27 32 37 41 42 45 55 61 67 74 79 84 82 85 84 60 62 67 47 62 109 133 147 141 171 173 171 177 180 183 192 202 211 215 220 226 236 234 240
325 338 351 0 5 5 8 8 21 29 36 39 44 45 49 59 67 73 78 85 90 87 85 76 75 77 73 86 108 116 126 134 148 165 168 172 176 179 185 192 200 209 210 207 215 226 236
309 323 336 350 354 1 7 4 12 20 29 37 45 47 51 53 58 67 73 80 86 88 87 84 82 80 81 88 92 96 104 114 127 145 156 164 170 174 177 181 180 182 196 208 200 201 208
295 306 321 334 340 347 354 3 3 15 16 27 40 48 52 54 54 58 65 73 76 77 78 80 80 81 84 85 87 92 100 106 112 119 125 132 138 148 159 171 180 185 177 177 194 210 230
284 294 307 317 325 331 338 347 359 2 12 17 26 43 50 55 57 57 59 60 66 75 79 79 80 82 84 87 91 94 96 98 104 112 119 129 137 146 151 158 163 172 191 206 200 206 229
278 285 295 301 309 315 320 328 335 350 359 10 17 16 45 53 61 62 63 62 62 63 67 76 87 88 87 87 88 92 97 100 103 107 111 117 126 135 146 156 168 175 188 201 209 221 245
270 278 287 293 296 302 305 310 316 325 332 349 347 12 344 34 54 60 68 68 67 66 67 70 74 82 93 100 98 95 96 99 103 107 113 121 130 139 151 164 174 196 214 226 234 240 256
261 270 277 283 287 289 293 296 296 299 311 314 327 318 335 344 279 63 54 68 76 74 68 71 73 80 89 99 107 116 119 121 120 116 119 125 137 157 175 197 216 230 237 241 250 256 264
256 262 270 275 279 283 285 288 287 284 283 289 296 298 294 250 298 295 248 250 266 202 112 63 80 67 64 84 116 131 143 154 164 172 176 180 186 197 211 226 235 247 256 261 266 269 272
253 257 261 268 272 275 279 280 283 281 276 272 276 281 277 275 255 243 232 207 190 209 259 276 271 254 250 268 269 266 260 251 250 245 239 239 241 244 244 249 254 263 268 268 275 276 276
251 252 254 258 266 270 273 277 275 278 277 272 270 269 269 265 267 261 252 246 242 236 231 243 259 262 266 263 256 252 257 267 272 276 274 273 272 271 273 275 277 272 273 278 282 280 284
252 251 250 252 256 263 269 271 268 269 273 274 277 275 270 265 260 263 263 261 259 254 249 247 254 262 260 268 266 263 260 257 260 271 275 274 275 272 273 272 273 274 277 275 268 270 275
Height
5744 5732 5719 5706 5694 5681 5666 5652 5639 5624 5611 5600 5591 5585 5578 5571 5573 5574 5573 5571 5569 5572 5578 5584 5590 5599 5609 5622 5634 5642 5652 5665 5681 5697 5710 5724 5735 5746 5757 5768 5778 5786 5795 5801 5807 5813 5818
5743 5730 5717 5704 5692 5679 5664 5651 5638 5624 5610 5597 5587 5581 5576 5573 5575 5575 5575 5573 5574 5577 5581 5584 5590 5598 5606 5618 5631 5638 5648 5658 5672 5688 5703 5716 5729 5740 5752 5762 5772 5781 5789 5796 5802 5808 5814
5741 5729 5717 5704 5691 5679 5664 5651 5638 5625 5611 5597 5587 5580 5577 5577 5578 5578 5579 5578 5580 5582 5585 5588 5593 5598 5603 5613 5625 5637 5648 5658 5669 5683 5699 5711 5722 5734 5746 5756 5766 5776 5783 5790 5797 5803 5808
5741 5729 5718 5705 5693 5680 5666 5653 5641 5628 5614 5600 5590 5585 5583 5583 5583 5584 5584 5585 5586 5587 5590 5594 5597 5600 5603 5614 5622 5631 5641 5652 5663 5677 5691 5705 5717 5730 5741 5752 5760 5770 5778 5785 5792 5798 5803
5742 5730 5719 5707 5694 5682 5669 5656 5644 5632 5620 5606 5598 5592 5591 5590 5591 5590 5590 5592 5593 5594 5596 5599 5601 5603 5609 5616 5624 5630 5638 5648 5659 5670 5686 5700 5713 5726 5737 5747 5757 5766 5775 5782 5788 5794 5799
5742 5731 5721 5710 5697 5686 5673 5660 5648 5637 5627 5615 5606 5601 5599 5599 5599 5598 5599 5599 5598 5600 5601 5602 5603 5607 5612 5618 5624 5628 5640 5650 5659 5668 5683 5698 5712 5724 5734 5744 5754 5763 5771 5779 5785 5791 5795
5744 5733 5723 5713 5701 5690 5679 5666 5654 5643 5634 5624 5614 5609 5607 5607 5607 5606 5605 5605 5604 5604 5604 5603 5605 5608 5617 5620 5626 5632 5642 5651 5662 5674 5684 5698 5710 5720 5731 5743 5752 5761 5769 5776 5782 5787 5790
5746 5736 5726 5716 5706 5695 5684 5672 5660 5649 5640 5632 5623 5618 5615 5613 5612 5611 5609 5608 5607 5609 5608 5608 5609 5614 5621 5624 5630 5639 5647 5656 5665 5675 5686 5698 5709 5721 5732 5741 5749 5757 5764 5771 5778 5783 5787
5748 5739 5730 5719 5711 5700 5691 5679 5667 5656 5646 5638 5631 5627 5623 5620 5618 5616 5613 5612 5610 5610 5610 5612 5615 5617 5622 5630 5634 5642 5653 5660 5667 5678 5687 5699 5711 5721 5731 5739 5747 5755 5763 5769 5776 5780 5784
5750 5742 5733 5724 5715 5706 5697 5687 5675 5664 5653 5644 5637 5633 5628 5625 5624 5621 5618 5617 5615 5615 5615 5618 5620 5625 5631 5635 5643 5647 5654 5665 5672 5680 5689 5697 5709 5718 5728 5737 5746 5753 5761 5767 5773 5777 5782
5751 5745 5737 5729 5720 5712 5702 5694 5683 5672 5662 5652 5644 5637 5632 5628 5625 5623 5623 5621 5620 5621 5623 5627 5630 5634 5638 5643 5648 5653 5661 5668 5677 5684 5693 5700 5708 5718 5727 5736 5744 5752 5758 5764 5769 5774 5778
5753 5748 5741 5733 5725 5718 5708 5701 5692 5681 5671 5661 5651 5644 5638 5633 5628 5627 5627 5627 5626 5628 5628 5632 5636 5640 5645 5649 5654 5659 5665 5672 5678 5687 5693 5702 5708 5717 5726 5735 5742 5749 5756 5762 5766 5770 5775
5755 5750 5744 5737 5731 5723 5715 5707 5700 5692 5681 5671 5661 5652 5644 5640 5635 5631 5632 5633 5635 5634 5636 5642 5646 5649 5654 5656 5662 5666 5668 5674 5680 5687 5695 5702 5710 5718 5726 5734 5741 5747 5753 5759 5764 5768 5772
5757 5752 5746 5741 5735 5728 5721 5714 5706 5699 5691 5682 5672 5663 5654 5649 5644 5641 5639 5641 5642 5642 5646 5648 5653 5658 5661 5664 5667 5670 5672 5677 5683 5691 5698 5704 5711 5717 5724 5732 5740 5746 5752 5757 5761 5765 5769
5758 5753 5748 5743 5738 5733 5727 5721 5713 5706 5700 5692 5684 5676 5667 5659 5656 5652 5652 5653 5649 5652 5656 5661 5663 5666 5670 5671 5674 5672 5675 5679 5684 5692 5700 5707 5713 5719 5726 5733 5740 5745 5750 5755 5759 5762 5765
5758 5754 5750 5745 5741 5737 5732 5726 5720 5713 5706 5700 5694 5687 5679 5672 5665 5666 5669 5664 5664 5667 5669 5672 5674 5674 5675 5676 5677 5677 5679 5681 5687 5693 5701 5709 5715 5721 5727 5733 5739 5744 5749 5754 5757 5759 5762
5759 5755 5751 5747 5743 5739 5735 5731 5726 5720 5714 5708 5702 5698 5691 5685 5680 5677 5680 5677 5674 5673 5674 5675 5676 5675 5676 5677 5677 5679 5682 5686 5690 5695 5702 5709 5717 5724 5728 5734 5739 5744 5747 5751 5753 5756 5758
5758 5755 5752 5749 5744 5741 5738 5734 5730 5726 5721 5716 5711 5707 5701 5696 5693 5692 5688 5686 5686 5685 5683 5684 5682 5681 5680 5681 5680 5683 5686 5689 5693 5698 5704 5710 5717 5723 5730 5734 5738 5742 5745 5747 5750 5754 5755
5758 5755 5752 5749 5746 5743 5739 5736 5733 5730 5726 5722 5717 5713 5709 5704 5703 5700 5698 5696 5694 5693 5693 5692 5691 5690 5687 5684 5686 5687 5689 5692 5696 5702 5707 5713 5718 5723 5728 5733 5736 5739 5742 5745 5748 5749 5751
5756 5754 5751 5749 5747 5744 5741 5738 5734 5732 5729 5727 5723 5720 5716 5713 5710 5707 5705 5703 5702 5700 5699 5698 5697 5695 5694 5694 5693 5693 5695 5697 5700 5705 5710 5715 5719 5724 5728 5732 5735 5738 5741 5743 5745 5747 5748
5753 5751 5750 5748 5746 5744 5742 5739 5736 5733 5731 5729 5727 5725 5721 5718 5716 5713 5711 5708 5706 5705 5704 5702 5701 5701 5701 5700 5701 5701 5702 5704 5707 5711 5714 5718 5722 5726 5729 5732 5735 5738 5740 5741 5743 5744 5745
5749 5749 5747 5746 5745 5743 5741 5739 5736 5734 5731 5730 5729 5727 5725 5722 5720 5719 5717 5714 5712 5710 5709 5708 5707 5706 5705 5706 5706 5707 5709 5711 5713 5716 5718 5721 5725 5727 5730 5732 5734 5736 5738 5740 5741 5742 5743
5743 5744 5744 5743 5743 5742 5740 5738 5736 5734 5732 5730 5729 5728 5726 5725 5724 5722 5721 5720 5718 5717 5715 5713 5712 5711 5711 5712 5712 5713 5714 5715 5718 5720 5722 5725 5727 5729 5731 5733 5735 5737 5738 5740 5741 5742 5742
5737 5738 5739 5740 5739 5739 5738 5737 5735 5733 5732 5731 5728 5727 5727 5726 5725 5725 5724 5723 5722 5721 5720 5720 5719 5718 5717 5716 5717 5719 5720 5721 5722 5724 5726 5728 5729 5731 5733 5734 5736 5737 5738 5739 5740 5740 5740
5729 5731 5733 5734 5735 5735 5735 5734 5733 5732 5730 5729 5728 5726 5725 5725 5724 5724 5724 5724 5723 5723 5723 5723 5723 5723 5722 5722 5722 5722 5723 5724 5725 5727 5728 5729 5731 5732 5733 5734 5735 5735 5736 5736 5736 5736 5735
5721 5724 5726 5727 5729 5730 5730 5730 5730 5728 5727 5726 5726 5725 5724 5723 5724 5723 5722 5723 5723 5723 5723 5723 5723 5724 5724 5725 5725 5725 5726 5726 5727 5728 5728 5728 5729 5730 5730 5731 5731 5732 5731 5731 5730 5730 5729
5712 5715 5718 5720 5722 5724 5725 5725 5724 5724 5722 5722 5722 5722 5722 5721 5720 5721 5721 5721 5721 5721 5722 5722 5722 5723 5723 5723 5724 5725 5725 5725 5726 5726 5727 5727 5727 5728 5727 5726 5726 5726 5726 5724 5725 5726 5720
5703 5706 5709 5712 5715 5717 5718 5719 5719 5719 5718 5718 5717 5717 5718 5718 5718 5718 5718 5718 5718 5718 5719 5720 5720 5720 5721 5721 5721 5721 5722 5722 5723 5723 5723 5723 5723 5723 5723 5722 5723 5721 5720 5720 5719 5716 5715
5693 5696 5700 5703 5706 5709 5711 5712 5713 5713 5713 5713 5713 5713 5713 5713 5714 5714 5714 5715 5715 5715 5715 5715 5716 5716 5717 5717 5718 5718 5718 5718 5718 5718 5718 5718 5718 5717 5717 5716 5714 5714 5713 5713 5711 5709 5708